loading
|

ONEWEB-0082, 45452

Orbit data source: Space-Track

ONEWEB-0082, 45452 is a payload satellite owned by One Web (UK) in LEO that was launched on Sat, 21 Mar 2020 UTC via a SOYUZ-2-1B launch vehicle from the Tyuratam Missile And Space Complex (TTMTR). Payloads include a variety of satellites, spacecraft, and rockets equipped with specific instruments for various scientific and technological missions. These include communications satellites like Starlink; space stations such as the ISS; scientific satellites like the Hubble; Earth observation satellites from companies like Planet Labs, Umbra, and HawkEye 360; GPS; miniature CubeSats for education and research; and military/defense satellites.

Loading next visibility...
Loading greatness...
ONEWEB-0082 details
Identifier
45452, 2020-020AE
Orbit
LEO
Last TLE update9 hours ago
Origin
Flag of UKOne Web (UK)
ManufacturerOne Web
MissionOperational Commercial Communications
Bus & MotorARROW, Unknown motor
Mass148 kg wet, ~140 kg dry
Launch date (UTC)
2020-03-21 (5 years ago)
Launch vehicle
SOYUZ-2-1B
Launch site
Tyuratam Missile And Space Complex (TTMTR)
Object type
Payload
Rocket body
Debris
Shape & HBRTrap Box + 2 Pan, 5 m
Radar Cross Section2.957 m², Medium (>0.1 m² and < 1m²)

Expand to show TLE details & history

TLE from 9 hours ago
0 ONEWEB-0082
1 45452U 20020AE  24279.57452743 -.00000409  00000-0 -11891-2 0  9992
2 45452  87.8936 144.4561 0001665  79.5472 280.5843 13.11416013221466
Epoch: 2024-10-05T13:47Z
Definitive object data (Epoch: 2024-10-05T13:47:19.169Z)
Latitude-0.0001°
Longitude-77.10266°
Altitude1,220.343 km
Speed7.244 km/s
True Right ascension09h 37m 49s
True Declination0° 00' 00"
Sunlit
Object was in daylight at TLE epoch
Predictive object data (real-time)
Latitude-26.43626°
Longitude-78.21976°
Altitude1,227.86 km
Speed7.24 km/s
Apparent Right ascension07h 37m 39s
Apparent Declination-37° 48' 27"
Sunlit
Object is in daylight
Predictive observer data (real-time)
Local Sidereal Time16:48:32
Azimuth259.857° W
Elevation-57.319°
Doppler factor1
Orbital elements
Apogee1,216.069 km
Perigee1,213.54 km
Semi-major axis7,592.941 km
Eccentricity0.0001665
Inclination87.8936°
RAAN144.4561°
Arg. of periapsis79.5472°
True anomaly280.56554°
Mean anomaly280.5843°
Eccentric anomaly280.57492°
Mean motion3.28041 °/min
BSTAR-0.0011891
Period109.74 mins
No data available

ONEWEB-0082 Visibility forecast

Observer location: 39.9160978°, -105.1181434

ONEWEB-0082 is not visible in the next 10 days
Span
Click to sort rows by Start time (UTC) header in descending order
Start Az.
Max El. time (UTC)
Max El. Az.
Max El.
End time (UTC)
End Az.